Time,TemperatureF,DewpointF,PressureIn,WindDirection,WindDirectionDegrees,WindSpeedMPH,WindSpeedGustMPH,Humidity,HourlyPrecipIn,Conditions,Clouds,dailyrainin,SolarRadiationWatts/m^2,SoftwareType,DateUTC
2013-04-07 00:02:00,44.0,35.0,-100.00,SSE,168,16.0,28.0,70,0.00,,,0.03,1.000000,,2013-04-07 07:02:00,
2013-04-07 00:33:00,44.0,35.0,-100.00,SSE,168,16.0,28.0,70,0.00,,,0.03,1.000000,,2013-04-07 07:33:00,
2013-04-07 00:42:00,44.0,35.0,-100.00,SSE,168,16.0,28.0,70,0.00,,,0.03,1.000000,,2013-04-07 07:42:00,
2013-04-07 00:52:00,44.0,35.0,-100.00,SSE,168,16.0,28.0,70,0.00,,,0.03,1.000000,,2013-04-07 07:52:00,
2013-04-07 01:02:00,44.0,35.0,-100.00,South,175,18.0,31.0,71,0.00,,,0.03,1.000000,,2013-04-07 08:02:00,
2013-04-07 01:33:00,44.0,35.0,-100.00,South,175,18.0,31.0,71,0.00,,,0.03,1.000000,,2013-04-07 08:33:00,
2013-04-07 01:42:00,44.0,35.0,-100.00,South,175,18.0,31.0,71,0.00,,,0.03,1.000000,,2013-04-07 08:42:00,
2013-04-07 01:52:00,44.0,35.0,-100.00,South,175,18.0,31.0,71,0.00,,,0.03,1.000000,,2013-04-07 08:52:00,
2013-04-07 02:02:00,43.0,35.0,-100.00,South,177,17.0,31.0,74,0.00,,,0.03,1.000000,,2013-04-07 09:02:00,
2013-04-07 02:23:00,43.0,35.0,-100.00,South,177,17.0,31.0,74,0.00,,,0.03,1.000000,,2013-04-07 09:23:00,
2013-04-07 02:34:00,43.0,35.0,-100.00,South,177,17.0,31.0,74,0.00,,,0.03,1.000000,,2013-04-07 09:34:00,
2013-04-07 02:43:00,43.0,35.0,-100.00,South,177,17.0,31.0,74,0.00,,,0.03,1.000000,,2013-04-07 09:43:00,
2013-04-07 02:53:00,43.0,35.0,-100.00,South,177,17.0,31.0,74,0.00,,,0.03,1.000000,,2013-04-07 09:53:00,
2013-04-07 03:02:00,44.0,36.0,-100.00,South,178,15.0,28.0,72,0.00,,,0.03,1.000000,,2013-04-07 10:02:00,
2013-04-07 03:34:00,44.0,36.0,-100.00,South,178,15.0,28.0,72,0.00,,,0.03,1.000000,,2013-04-07 10:34:00,
2013-04-07 03:43:00,44.0,36.0,-100.00,South,178,15.0,28.0,72,0.00,,,0.03,1.000000,,2013-04-07 10:43:00,
2013-04-07 03:53:00,44.0,36.0,-100.00,South,178,15.0,28.0,72,0.00,,,0.03,1.000000,,2013-04-07 10:53:00,
2013-04-07 04:02:00,45.0,36.0,-100.00,South,175,16.0,27.0,71,0.00,,,0.01,1.000000,,2013-04-07 11:02:00,
2013-04-07 04:33:00,45.0,36.0,-100.00,South,175,16.0,27.0,71,0.00,,,0.01,1.000000,,2013-04-07 11:33:00,
2013-04-07 04:43:00,45.0,36.0,-100.00,South,175,16.0,27.0,71,0.00,,,0.01,1.000000,,2013-04-07 11:43:00,
2013-04-07 04:53:00,45.0,36.0,-100.00,South,175,16.0,27.0,71,0.00,,,0.01,1.000000,,2013-04-07 11:53:00,
2013-04-07 05:02:00,42.0,38.0,-100.00,SW,233,13.0,24.0,85,0.01,,,0.02,1.000000,,2013-04-07 12:02:00,
2013-04-07 05:23:00,42.0,38.0,-100.00,SW,233,13.0,24.0,85,0.01,,,0.02,1.000000,,2013-04-07 12:23:00,
2013-04-07 05:34:00,42.0,38.0,-100.00,SW,233,13.0,24.0,85,0.01,,,0.02,1.000000,,2013-04-07 12:34:00,
2013-04-07 05:43:00,42.0,38.0,-100.00,SW,233,13.0,24.0,85,0.01,,,0.02,1.000000,,2013-04-07 12:43:00,
2013-04-07 05:53:00,42.0,38.0,-100.00,SW,233,13.0,24.0,85,0.01,,,0.02,1.000000,,2013-04-07 12:53:00,
2013-04-07 06:02:00,43.0,32.0,-100.00,SW,233,24.0,36.0,65,0.01,,,0.03,1.000000,,2013-04-07 13:02:00,
2013-04-07 06:23:00,43.0,32.0,-100.00,SW,233,24.0,36.0,65,0.01,,,0.03,1.000000,,2013-04-07 13:23:00,
2013-04-07 06:33:00,43.0,32.0,-100.00,SW,233,24.0,36.0,65,0.01,,,0.03,1.000000,,2013-04-07 13:33:00,
2013-04-07 06:43:00,43.0,32.0,-100.00,SW,233,24.0,36.0,65,0.01,,,0.03,1.000000,,2013-04-07 13:43:00,
2013-04-07 06:52:00,43.0,32.0,-100.00,SW,233,24.0,36.0,65,0.01,,,0.03,1.000000,,2013-04-07 13:52:00,
2013-04-07 07:02:00,41.0,34.0,-100.00,SW,226,17.0,38.0,77,0.00,,,0.03,3.000000,,2013-04-07 14:02:00,
2013-04-07 07:33:00,41.0,34.0,-100.00,SW,226,17.0,38.0,77,0.00,,,0.03,3.000000,,2013-04-07 14:33:00,
2013-04-07 07:44:00,41.0,34.0,-100.00,SW,226,17.0,38.0,77,0.00,,,0.03,3.000000,,2013-04-07 14:44:00,
2013-04-07 07:53:00,41.0,34.0,-100.00,SW,226,17.0,38.0,77,0.00,,,0.03,3.000000,,2013-04-07 14:53:00,
2013-04-07 09:02:00,43.0,32.0,-100.00,SW,230,19.0,34.0,65,-99.99,,,0.02,172.000000,,2013-04-07 16:02:00,
2013-04-07 09:34:00,43.0,32.0,-100.00,SW,230,19.0,34.0,65,-99.99,,,0.02,172.000000,,2013-04-07 16:34:00,
2013-04-07 09:43:00,43.0,32.0,-100.00,SW,230,19.0,34.0,65,-99.99,,,0.02,172.000000,,2013-04-07 16:43:00,
2013-04-07 10:02:00,43.0,33.0,-100.00,WSW,243,22.0,39.0,68,0.00,,,0.02,496.000000,,2013-04-07 17:02:00,
2013-04-07 10:24:00,43.0,33.0,-100.00,WSW,243,22.0,39.0,68,0.00,,,0.02,496.000000,,2013-04-07 17:24:00,
2013-04-07 10:33:00,43.0,33.0,-100.00,WSW,243,22.0,39.0,68,0.00,,,0.02,496.000000,,2013-04-07 17:33:00,
2013-04-07 10:43:00,43.0,33.0,-100.00,WSW,243,22.0,39.0,68,0.00,,,0.02,496.000000,,2013-04-07 17:43:00,
2013-04-07 10:53:00,43.0,33.0,-100.00,WSW,243,22.0,39.0,68,0.00,,,0.02,496.000000,,2013-04-07 17:53:00,
2013-04-07 11:02:00,43.0,30.0,-100.00,SW,229,18.0,32.0,61,0.00,,,0.02,591.000000,,2013-04-07 18:02:00,
2013-04-07 11:33:00,43.0,30.0,-100.00,SW,229,18.0,32.0,61,0.00,,,0.02,591.000000,,2013-04-07 18:33:00,
2013-04-07 11:43:00,43.0,30.0,-100.00,SW,229,18.0,32.0,61,0.00,,,0.02,591.000000,,2013-04-07 18:43:00,
2013-04-07 11:52:00,43.0,30.0,-100.00,SW,229,18.0,32.0,61,0.00,,,0.02,591.000000,,2013-04-07 18:52:00,
2013-04-07 12:02:00,43.0,30.0,-100.00,SW,232,21.0,33.0,60,0.00,,,0.02,309.000000,,2013-04-07 19:02:00,
2013-04-07 12:23:00,43.0,30.0,-100.00,SW,232,21.0,33.0,60,0.00,,,0.02,309.000000,,2013-04-07 19:23:00,
2013-04-07 12:33:00,43.0,30.0,-100.00,SW,232,21.0,33.0,60,0.00,,,0.02,309.000000,,2013-04-07 19:33:00,
2013-04-07 12:43:00,43.0,30.0,-100.00,SW,232,21.0,33.0,60,0.00,,,0.02,309.000000,,2013-04-07 19:43:00,
2013-04-07 12:53:00,43.0,30.0,-100.00,SW,232,21.0,33.0,60,0.00,,,0.02,309.000000,,2013-04-07 19:53:00,
2013-04-07 13:02:00,44.0,29.0,-100.00,WSW,258,15.0,34.0,55,0.00,,,0.02,414.000000,,2013-04-07 20:02:00,
2013-04-07 13:33:00,44.0,29.0,-100.00,WSW,258,15.0,34.0,55,0.00,,,0.02,414.000000,,2013-04-07 20:33:00,
2013-04-07 13:44:00,44.0,29.0,-100.00,WSW,258,15.0,34.0,55,0.00,,,0.02,414.000000,,2013-04-07 20:44:00,
2013-04-07 13:53:00,44.0,29.0,-100.00,WSW,258,15.0,34.0,55,0.00,,,0.02,414.000000,,2013-04-07 20:53:00,
2013-04-07 14:02:00,45.0,26.0,-100.00,WSW,241,21.0,38.0,47,0.00,,,0.02,652.000000,,2013-04-07 21:02:00,
2013-04-07 14:23:00,45.0,26.0,-100.00,WSW,241,21.0,38.0,47,0.00,,,0.02,652.000000,,2013-04-07 21:23:00,
2013-04-07 14:35:00,45.0,26.0,-100.00,WSW,241,21.0,38.0,47,0.00,,,0.02,652.000000,,2013-04-07 21:35:00,
2013-04-07 14:45:00,45.0,26.0,-100.00,WSW,241,21.0,38.0,47,0.00,,,0.02,652.000000,,2013-04-07 21:45:00,
2013-04-07 14:54:00,45.0,26.0,-100.00,WSW,241,21.0,38.0,47,0.00,,,0.02,652.000000,,2013-04-07 21:54:00,
2013-04-07 15:02:00,46.0,25.0,-100.00,WSW,248,22.0,32.0,43,0.00,,,0.02,762.000000,,2013-04-07 22:02:00,
2013-04-07 15:24:00,46.0,25.0,-100.00,WSW,248,22.0,32.0,43,0.00,,,0.02,762.000000,,2013-04-07 22:24:00,
2013-04-07 15:34:00,46.0,25.0,-100.00,WSW,248,22.0,32.0,43,0.00,,,0.02,762.000000,,2013-04-07 22:34:00,
2013-04-07 15:53:00,46.0,25.0,-100.00,WSW,248,22.0,32.0,43,0.00,,,0.02,762.000000,,2013-04-07 22:53:00,
2013-04-07 16:02:00,44.0,27.0,-100.00,West,269,17.0,33.0,50,0.00,,,0.02,634.000000,,2013-04-07 23:02:00,
2013-04-07 16:33:00,44.0,27.0,-100.00,West,269,17.0,33.0,50,0.00,,,0.02,634.000000,,2013-04-07 23:33:00,
2013-04-07 16:43:00,44.0,27.0,-100.00,West,269,17.0,33.0,50,0.00,,,0.02,634.000000,,2013-04-07 23:43:00,
2013-04-07 16:52:00,44.0,27.0,-100.00,West,269,17.0,33.0,50,0.00,,,0.02,634.000000,,2013-04-07 23:52:00,
2013-04-07 17:02:00,41.0,26.0,-100.00,WSW,248,13.0,26.0,54,0.00,,,0.02,360.000000,,2013-04-08 00:02:00,
2013-04-07 17:23:00,41.0,26.0,-100.00,WSW,248,13.0,26.0,54,0.00,,,0.02,360.000000,,2013-04-08 00:23:00,
2013-04-07 17:33:00,41.0,26.0,-100.00,WSW,248,13.0,26.0,54,0.00,,,0.02,360.000000,,2013-04-08 00:33:00,
2013-04-07 17:42:00,41.0,26.0,-100.00,WSW,248,13.0,26.0,54,0.00,,,0.02,360.000000,,2013-04-08 00:42:00,
2013-04-07 17:52:00,41.0,26.0,-100.00,WSW,248,13.0,26.0,54,0.00,,,0.02,360.000000,,2013-04-08 00:52:00,
2013-04-07 18:02:00,41.0,26.0,-100.00,WSW,254,15.0,29.0,55,0.00,,,0.02,209.000000,,2013-04-08 01:02:00,
2013-04-07 18:23:00,41.0,26.0,-100.00,WSW,254,15.0,29.0,55,0.00,,,0.02,209.000000,,2013-04-08 01:23:00,
2013-04-07 18:34:00,41.0,26.0,-100.00,WSW,254,15.0,29.0,55,0.00,,,0.02,209.000000,,2013-04-08 01:34:00,
2013-04-07 18:44:00,41.0,26.0,-100.00,WSW,254,15.0,29.0,55,0.00,,,0.02,209.000000,,2013-04-08 01:44:00,
2013-04-07 18:54:00,41.0,26.0,-100.00,WSW,254,15.0,29.0,55,0.00,,,0.02,209.000000,,2013-04-08 01:54:00,
2013-04-07 19:02:00,39.0,26.0,-100.00,SW,226,6.0,19.0,60,0.00,,,0.02,122.000000,,2013-04-08 02:02:00,
2013-04-07 19:33:00,39.0,26.0,-100.00,SW,226,6.0,19.0,60,0.00,,,0.02,122.000000,,2013-04-08 02:33:00,
2013-04-07 19:48:00,39.0,26.0,-100.00,SW,226,6.0,19.0,60,0.00,,,0.02,122.000000,,2013-04-08 02:48:00,
2013-04-07 19:53:00,39.0,26.0,-100.00,SW,226,6.0,19.0,60,0.00,,,0.02,122.000000,,2013-04-08 02:53:00,
2013-04-07 20:02:00,37.0,25.0,-100.00,West,266,10.0,18.0,62,0.00,,,0.02,16.000000,,2013-04-08 03:02:00,
2013-04-07 20:36:00,37.0,25.0,-100.00,West,266,10.0,18.0,62,0.00,,,0.02,16.000000,,2013-04-08 03:36:00,
2013-04-07 20:48:00,37.0,25.0,-100.00,West,266,10.0,18.0,62,0.00,,,0.02,16.000000,,2013-04-08 03:48:00,
2013-04-07 20:54:00,37.0,25.0,-100.00,West,266,10.0,18.0,62,0.00,,,0.02,16.000000,,2013-04-08 03:54:00,
2013-04-07 21:02:00,35.0,25.0,-100.00,WSW,237,9.0,14.0,67,0.00,,,0.02,1.000000,,2013-04-08 04:02:00,
2013-04-07 21:23:00,35.0,25.0,-100.00,WSW,237,9.0,14.0,67,0.00,,,0.02,1.000000,,2013-04-08 04:23:00,
2013-04-07 21:34:00,35.0,25.0,-100.00,WSW,237,9.0,14.0,67,0.00,,,0.02,1.000000,,2013-04-08 04:34:00,
2013-04-07 21:44:00,35.0,25.0,-100.00,WSW,237,9.0,14.0,67,0.00,,,0.02,1.000000,,2013-04-08 04:44:00,
2013-04-07 21:52:00,35.0,25.0,-100.00,WSW,237,9.0,14.0,67,0.00,,,0.02,1.000000,,2013-04-08 04:52:00,
2013-04-07 22:02:00,33.0,25.0,-100.00,SW,223,9.0,18.0,72,0.00,,,0.02,1.000000,,2013-04-08 05:02:00,
2013-04-07 22:32:00,33.0,25.0,-100.00,SW,223,9.0,18.0,72,0.00,,,0.02,1.000000,,2013-04-08 05:32:00,
2013-04-07 22:42:00,33.0,25.0,-100.00,SW,223,9.0,18.0,72,0.00,,,0.02,1.000000,,2013-04-08 05:42:00,
2013-04-07 22:52:00,33.0,25.0,-100.00,SW,223,9.0,18.0,72,0.00,,,0.02,1.000000,,2013-04-08 05:52:00,
2013-04-07 23:02:00,32.0,26.0,-100.00,SSW,209,5.0,9.0,77,0.00,,,0.02,1.000000,,2013-04-08 06:02:00,
2013-04-07 23:32:00,32.0,26.0,-100.00,SSW,209,5.0,9.0,77,0.00,,,0.02,1.000000,,2013-04-08 06:32:00,
2013-04-07 23:43:00,32.0,26.0,-100.00,SSW,209,5.0,9.0,77,0.00,,,0.02,1.000000,,2013-04-08 06:43:00,
2013-04-07 23:52:00,32.0,26.0,-100.00,SSW,209,5.0,9.0,77,0.00,,,0.02,1.000000,,2013-04-08 06:52:00,